Location: *
(37.5724°S, 58.0067°E)
Time: 07:42:34
(UTC+00:00)

Cosmos 1933 Rocket - Pass Details

Date: 29 January 2021
Orbit: 607 x 630 km, 82.5° (Epoch: 04 March)

Event Time Altitude Azimuth Distance (km) Brightness Sun altitude
Rises 17:19:39 0° 163° (SSE) 2,957 7.4 -20.2°
Reaches altitude 10° 17:23:39 10° 128° (SE) 2,033 6.1 -20.7°
Enters shadow 17:24:21 11° 119° (ESE) 1,970 6.0 -20.8°
